« Back
NWS Peachtree City, Ga » Text Product » MCN Terminal Aerodrome Forecast


Printer-friendly Version
Current Version              Previous Versions:   1  2  3  4  5  6  7  8  9  

Terminal Aerodrome Forecast

856
FTUS42 KFFC 222300
TAFMCN
TAF
KMCN 222323Z 2300/2324 02004KT P6SM SKC
     FM230200 00000KT P6SM SKC
     FM231600 35003KT P6SM SKC=



USA.gov is the U.S. government's official web portal to all federal, state and local government web resources and services.